Weather in Multanovo

Russia / Astrakhan Oblast     46°19′49″N   48°46′35″E
temp.,
°C
wind,
m/s
gust,
m/s
humid.,
%
clouds,
%
prec.,
mm/h
press.,
hPa
HPBL,
m
7 august, sun
sun701:00+21w346733 0.0 101255
04:00+20nw336834 0.0 101241
07:00+24nne26417 0.0 1011165
10:00+33ene77164 0.0 10112988
13:00+33e98170 0.0 10113009
16:00+33ese88155 0.0 10112415
19:00+30ese582422 0.0 1012931
22:00+23e33531 0.0 101231
8 august, mon
mon801:00+23ene33416 0.0 101231
04:00+22ne33332 0.0 101222
07:00+24ne37254 0.0 1013159
10:00+33e45164 0.0 10142553
13:00+34se661594 0.0 10143541
16:00+34se661472 0.0 10133332
19:00+31sse231895 0.0 1013128
22:00+25wsw332921 0.0 101422
9 august, tue
tue901:00+23sw22345 0.0 101411
04:00+21wsw22395 0.0 101411
07:00+24nw113131 0.0 101436
10:00+33e23185 0.0 1014986
13:00+36se651466 0.0 10133716
16:00+25ne111345100 0.2 1015383
19:00+27ne810414 0.1 1015494
22:00+22nne34463 0.1 101549
10 august, wed
wed1001:00+22ne34500 0.0 101453
04:00+22ne33540 0.0 101426
07:00+25nne35470 0.0 1014144
10:00+33ene46240 0.0 10141248
13:00+35ese88220 0.0 10142740
16:00+34ese78220 0.0 10131834
19:00+31e48280 0.0 1013592
22:00+25e46490 0.0 101372
11 august, thu
thu1101:00+24e48590 0.0 1012130
04:00+24ene48590 0.0 1012135
07:00+27e412560 0.0 1012391
10:00+34se78260 0.0 10131120
13:00+36sse78200 0.0 10131780
16:00+35se782028 0.0 10131373
19:00+31se452891 0.0 1014430
22:00+25ese33577 0.0 101429